Regional Weather Roundup
Issued by NWS Goodland, KS

Home | Current Version | Previous Version | Graphics & Text | Print | Product List | Glossary On
Versions: 1 2 3 4 5 6 7 8 9 10 11 12 13 14 15 16 17 18 19 20 21 22 23 24 25 26 27 28 29 30 31 32 33 34 35 36 37 38 39 40 41 42 43 44 45 46 47 48 49 50
638
ASUS43 KGLD 280508
RWRGLD

GOODLAND FORECAST AREA HOURLY WEATHER ROUNDUP
NATIONAL WEATHER SERVICE GOODLAND KS
1100 PM MDT SAT MAY 27 2017

...OFFICIAL OBSERVATIONS...

CITY           SKY/WX    TMP DP  RH WIND       PRES   REMARKS
GOODLAND KS    CLEAR     52  49  89 W8        30.15R
HILL CITY KS   CLOUDY    60  53  77 NW10      30.07R
IMPERIAL NEB   CLEAR     52  44  74 W8        30.12S
MCCOOK NEB     CLEAR     53  50  89 W7        30.09R
AKRON CO       CLEAR     44  39  82 W10       30.21R
BURLINGTON CO  CLEAR     49  47  93 NW8       30.19R
LIMON CO       CLOUDY    42  41  96 NW5       30.26R
$$

...UNOFFICIAL OBSERVATIONS...

CITY           SKY/WX    TMP DP  RH WIND       PRES   REMARKS
LENORA KS        N/A     56  32  40 MISG        N/A
NORTON KS      CLEAR     54  48  82 W8        30.07R
SHARON SPRINGS   N/A     51  49  93 W6          N/A
TRENTON NEB      N/A     53  32  45 CALM        N/A
$$




USA.gov is the U.S. government's official web portal to all federal, state and local government web resources and services.